sat.trackr.live / text

‹ back to catalog

STARLINK-32032

NORAD 60077 · 2024-113U

PAYLOAD ACTIVE UNKNOWN

§ Identity

Operator
Country
US
Launch date
2024-06-19
Launch site
AFWTR
Launch vehicle
Mass (kg)
RCS (m²)

Purposes: comms

External: N2YO · Heavens-Above · Gunter

§ Orbital elements

Epoch: 2026-05-25T02:30:07.917120Z

Period
93.85 min
Inclination
53.1610°
Eccentricity
0.0001097
Mean motion
15.34398040 rev/d
Perigee alt
462.0 km
Apogee alt
463.5 km
Semi-major
6,840.8 km
B*
2.8836e-5
RAAN
3.1668°
Arg perigee
93.6083°
Mean anomaly
266.5045°
Rev number
10,894

§ Raw data

STARLINK-320321 60077U 24113U   26145.10425830  .00000598  00000+0  28836-4 0  99942 60077  53.1610   3.1668 0001097  93.6083 266.5045 15.34398040108945

JSON: /api/v1/satellites/60077 · /tle

For live sub-satellite position, see the globe view (requires WebGL).

§ Visibility from observer

Set your observer location to see the next 7 days of passes ≥ 10°. The values pass through the URL so the page stays shareable.

No JS? Fill the form by hand. The geolocation button needs JavaScript.